Wind_Speed
6 7 7 7 8 9 9 9 9 9 8 7 7 7 7 7 7 8 9 11 12 13 14 16 17 18 19 19 20 21 23 24 25 26 28 29 31 32 34 35 36 37 39 40 41 42 43 44 45
8 9 10 10 10 10 10 9 9 8 6 6 7 7 8 9 10 11 12 13 14 15 16 17 18 18 19 20 21 23 24 25 27 28 30 31 33 34 36 37 39 41 42 44 45 46 48 49 50
11 11 12 11 11 9 9 8 7 6 6 7 8 9 10 11 12 13 14 14 15 16 16 17 18 19 20 21 22 24 25 27 28 30 32 33 35 37 39 41 42 44 46 48 49 51 52 54 55
12 11 11 10 9 8 8 7 6 6 7 9 10 11 13 13 14 14 14 15 15 16 17 18 19 20 21 23 24 26 27 29 30 32 34 36 38 40 42 44 46 48 50 52 54 56 58 60 61
11 10 9 8 7 7 7 7 7 8 10 11 13 13 14 14 14 14 15 15 16 16 18 19 20 21 23 25 26 28 29 31 33 35 37 39 41 43 45 48 50 53 55 58 60 63 65 67 68
9 8 7 6 6 7 7 8 9 10 12 14 15 15 14 14 14 14 14 15 16 18 19 20 22 24 25 26 28 29 31 33 36 38 40 42 44 46 49 52 55 58 60 63 66 69 72 74 76
7 6 5 5 7 8 9 10 12 13 13 14 15 15 14 14 14 14 15 16 18 20 21 22 24 25 27 28 30 32 34 36 38 40 43 45 47 50 53 56 59 63 66 69 72 76 79 82 85
4 4 5 7 9 10 10 11 13 13 13 14 14 14 13 13 14 15 16 18 20 21 23 24 25 27 28 30 32 34 37 39 41 43 45 48 50 53 56 60 63 66 70 73 78 82 85 89 92
4 5 8 10 12 13 12 12 13 13 12 12 13 12 13 13 14 16 18 20 21 23 24 25 27 29 31 33 35 37 40 42 44 46 48 51 53 56 59 62 66 69 73 77 82 86 90 94 97
7 8 10 11 13 13 13 12 12 12 11 10 11 12 13 14 15 17 20 21 23 24 25 27 29 31 33 35 37 40 42 44 46 48 51 53 56 59 61 65 68 72 76 80 85 89 94 97 100
10 11 12 12 12 13 12 11 11 11 10 10 10 11 13 15 17 18 20 22 24 25 27 29 31 33 35 37 40 42 44 46 48 50 53 55 57 60 63 66 70 74 78 83 87 92 95 97 98
13 13 13 13 12 12 11 10 10 10 11 11 12 13 14 16 18 19 21 23 25 27 29 31 33 35 37 39 42 44 46 48 50 52 54 56 59 62 65 68 72 76 81 85 89 92 93 93 92
13 14 13 13 12 11 10 10 9 10 11 12 14 15 16 17 18 20 21 23 26 28 30 32 34 36 38 41 43 45 47 49 51 53 55 57 59 62 65 69 74 78 82 86 88 89 89 87 83
13 13 13 12 11 9 9 9 9 10 11 12 14 15 16 18 19 20 22 24 26 29 31 33 35 37 39 41 43 45 47 49 51 53 55 57 60 63 66 71 75 79 83 85 86 86 84 81 76
13 13 12 11 9 8 9 10 9 9 10 11 13 14 16 17 19 21 23 25 27 29 31 33 34 36 39 41 43 45 47 49 51 53 55 58 60 64 67 71 76 80 82 84 84 82 79 75 71
12 12 11 10 9 8 8 10 10 9 10 11 13 14 16 17 19 21 23 25 27 29 31 33 34 36 39 41 43 45 47 49 51 53 56 58 61 64 68 72 76 80 81 82 80 78 74 71 69
11 10 10 10 9 8 8 9 11 10 10 11 13 14 16 17 19 21 23 25 27 29 31 33 35 37 39 41 44 46 48 50 52 54 56 59 62 65 69 73 77 79 80 80 78 74 71 69 68
11 10 9 9 9 9 8 8 10 10 10 11 12 14 16 17 19 21 23 25 27 29 32 34 36 38 40 43 45 47 49 51 53 55 57 60 63 67 70 74 77 78 78 77 75 71 69 68 67
11 10 9 9 8 8 8 9 9 9 10 11 12 14 15 17 19 22 24 26 28 30 33 35 37 39 42 44 47 49 51 53 55 57 59 61 64 68 71 74 77 77 76 74 72 69 68 67 66
12 11 10 9 9 8 9 9 10 10 10 11 13 14 15 17 19 22 24 27 29 31 33 36 38 41 43 46 48 51 53 55 57 58 60 63 66 69 72 75 76 76 74 72 70 68 67 65 65
13 12 11 10 10 10 10 10 11 11 12 13 14 15 16 18 20 22 25 27 30 32 35 37 40 42 45 47 50 52 55 57 59 61 62 64 67 70 72 75 75 74 72 70 68 67 67 64 62
14 14 13 12 11 11 12 12 12 13 13 14 15 16 18 19 21 23 25 28 31 33 36 39 42 44 47 49 52 54 57 59 61 62 64 66 68 71 73 75 74 73 71 69 67 66 66 64 60
16 15 15 14 14 13 14 14 14 15 15 16 17 19 20 21 22 24 26 29 32 35 37 40 43 46 49 51 54 56 59 61 63 64 65 67 69 71 73 74 73 71 69 67 66 65 64 63 60
17 17 17 17 17 16 16 17 16 17 18 19 20 21 22 23 24 26 28 31 33 36 39 42 45 48 51 53 55 58 60 62 64 66 66 68 70 71 73 73 72 70 68 66 64 64 63 61 59
19 19 19 19 19 19 19 19 18 19 20 21 22 23 24 26 27 28 31 33 35 38 41 43 46 49 52 55 57 59 62 64 66 67 68 68 70 71 72 72 71 68 66 65 63 62 61 60 57
20 21 22 23 22 21 22 22 21 22 22 23 24 26 27 28 29 31 33 35 37 40 42 45 47 50 53 56 58 61 63 65 67 68 69 69 70 71 71 71 69 67 65 63 62 61 60 59 56
22 22 24 25 25 25 25 24 23 24 25 26 27 28 29 30 31 33 35 37 39 42 44 46 49 51 54 57 59 62 64 66 68 70 70 70 70 71 71 70 68 66 64 63 61 60 59 57 55
24 24 25 27 28 29 28 27 26 26 28 29 30 30 31 33 34 35 37 39 42 44 46 48 50 52 54 57 60 62 65 67 69 71 71 70 70 71 70 69 68 65 63 62 60 59 58 57 55
25 26 27 29 31 32 32 28 29 29 30 31 32 33 34 35 37 38 40 42 44 46 48 50 52 53 55 58 60 63 66 68 70 71 72 71 70 70 70 68 67 65 62 60 59 58 57 56 54
27 28 29 31 33 34 36 31 30 32 33 34 34 35 37 38 39 41 42 44 46 48 50 51 53 54 56 58 61 63 66 68 70 71 72 71 70 70 69 68 66 64 62 60 58 57 56 55 53
Wind_Direction
130 130 125 121 120 117 110 101 94 86 78 71 63 54 43 27 10 349 336 329 324 320 316 313 312 311 310 309 308 307 306 305 305 304 304 303 303 302 301 300 299 298 297 295 294 292 291 289 287
110 110 110 110 111 109 102 95 86 75 62 45 31 16 5 356 345 332 325 320 316 314 312 312 312 311 310 309 308 307 306 306 305 305 304 304 303 302 301 300 299 298 297 295 294 292 290 288 286
104 105 104 105 106 100 92 82 71 54 31 12 359 351 344 338 331 323 318 316 314 313 313 313 312 312 310 309 308 307 307 306 306 305 304 304 303 302 301 300 299 298 297 295 293 291 290 288 286
103 102 102 103 101 90 76 59 40 19 1 349 341 336 333 329 324 319 317 316 315 315 315 314 313 312 311 310 309 309 308 307 306 306 305 305 304 303 302 301 300 299 298 297 295 293 291 289 286
100 96 92 88 79 67 49 27 6 353 342 334 329 326 325 323 320 317 316 316 316 317 316 315 313 312 311 311 311 310 309 308 307 307 307 306 305 304 303 302 302 301 300 299 297 296 294 291 289
96 89 74 50 33 28 15 357 344 339 333 327 323 322 323 320 318 318 318 318 318 317 316 315 314 313 313 312 312 311 310 309 309 308 307 307 306 305 305 305 304 303 302 301 299 298 296 293 291
87 73 51 14 0 357 351 339 332 330 328 321 318 319 321 319 320 320 319 319 318 316 315 314 314 314 313 313 312 312 311 311 310 309 308 308 307 307 307 307 306 305 304 302 301 299 297 295 293
57 33 360 344 341 339 335 330 325 323 320 316 315 317 320 321 321 320 319 318 318 316 315 315 315 315 314 314 314 314 313 312 312 311 310 310 310 309 309 308 307 306 305 303 302 300 299 297 294
3 348 337 331 329 327 326 323 319 317 315 313 313 316 320 321 321 320 319 319 318 317 317 316 316 316 315 315 316 315 314 314 313 313 312 312 311 310 309 309 308 307 305 304 303 301 300 298 295
330 328 325 321 320 319 319 319 316 313 313 313 314 317 320 321 321 320 319 319 319 319 319 318 318 317 317 317 317 316 315 315 314 314 313 312 311 311 310 309 308 307 306 305 304 302 301 299 296
317 318 319 316 315 315 316 318 316 313 314 317 318 319 320 322 322 321 320 321 321 321 321 321 320 319 319 319 318 317 316 315 315 314 313 312 312 311 311 310 309 309 308 306 305 304 302 300 297
313 315 316 316 316 316 317 319 318 317 317 319 322 324 324 324 324 323 323 324 324 324 324 324 323 322 321 320 319 318 317 316 315 314 313 313 313 312 312 311 310 310 309 308 307 305 303 301 299
311 313 315 315 315 316 316 318 318 317 317 320 324 327 327 327 327 327 327 327 327 327 327 326 325 324 323 322 321 319 318 317 316 315 314 313 313 313 312 312 312 312 311 311 309 307 305 303 301
312 313 314 314 314 315 314 314 316 316 318 322 325 328 329 329 329 329 330 330 330 329 329 328 326 325 325 324 323 321 320 318 317 316 315 315 314 314 314 314 314 314 314 313 311 309 308 306 303
310 311 311 312 313 313 311 311 316 316 319 323 327 330 331 330 330 331 332 332 332 331 330 330 329 329 328 327 326 324 322 320 319 317 316 316 316 316 316 316 317 317 316 315 314 312 310 308 305
308 308 308 309 311 312 309 306 317 319 322 326 329 331 331 331 332 333 334 334 333 333 333 333 332 332 331 330 329 327 325 323 321 319 318 318 318 318 319 319 320 320 319 318 316 315 313 310 307
304 304 306 306 308 309 306 304 313 320 324 328 331 332 332 333 334 335 335 336 335 335 335 335 334 334 334 333 332 331 329 327 324 322 321 321 320 321 321 322 322 322 322 321 319 318 316 313 310
301 298 294 289 292 297 300 301 306 315 322 327 330 332 333 334 335 336 337 337 337 337 337 337 336 336 335 335 335 334 332 330 328 326 324 324 323 324 324 325 325 325 324 323 322 320 319 316 314
292 287 280 276 282 288 293 298 303 310 317 323 328 331 333 335 337 339 339 338 338 338 338 338 338 337 337 337 337 336 335 333 331 329 327 327 326 327 327 328 328 327 326 325 324 323 321 320 317
283 281 279 279 283 285 288 293 299 306 314 321 326 330 333 335 338 340 340 341 341 340 340 339 339 338 338 338 338 338 337 336 334 332 330 330 329 329 330 331 330 330 328 327 326 325 325 323 321
281 280 279 278 279 281 284 289 297 304 311 317 322 326 330 333 336 339 340 341 342 342 342 342 341 341 340 340 339 339 339 338 337 335 333 332 332 332 332 333 332 331 330 329 328 327 327 327 325
279 278 278 277 277 279 284 291 297 302 308 313 317 322 328 332 335 337 339 341 341 341 342 343 343 343 342 342 341 340 340 339 338 337 335 334 334 334 334 335 334 333 332 331 331 330 330 329 328
276 276 276 276 275 277 283 289 296 301 305 311 315 320 326 331 333 335 337 339 340 341 342 342 343 343 343 343 343 342 341 340 339 338 337 336 336 336 336 336 336 335 334 333 333 332 332 332 331
275 274 274 274 275 277 281 286 293 298 303 309 314 319 324 328 331 333 335 337 338 340 341 341 342 343 343 343 343 342 341 341 340 339 338 338 337 337 337 337 337 336 335 335 334 335 334 334 332
273 273 274 273 274 277 281 285 293 297 302 307 312 316 321 325 328 331 332 334 336 337 339 340 341 341 342 342 342 342 342 341 341 340 340 339 338 338 338 338 338 337 336 336 336 336 336 336 334
273 272 273 275 276 277 280 286 293 297 301 305 309 313 317 321 324 327 329 330 332 334 336 337 338 339 340 341 341 341 342 342 342 341 341 340 339 339 340 340 339 338 337 337 338 338 338 337 336
273 272 273 274 276 277 281 287 291 295 299 302 306 309 314 317 320 322 325 327 329 331 333 334 336 337 338 339 340 341 341 341 342 342 341 341 340 340 341 341 340 339 339 339 339 339 339 338 338
274 274 274 275 277 279 281 286 291 293 296 299 303 307 310 314 317 319 321 324 326 328 330 331 333 335 336 337 338 339 340 341 341 342 342 341 341 341 341 342 341 340 339 340 340 340 340 339 339
276 275 276 277 279 281 284 287 291 293 295 298 301 304 308 311 314 316 318 320 322 324 326 329 331 332 334 335 337 338 339 340 341 342 342 342 341 341 342 342 342 341 340 340 340 340 341 340 340
276 276 277 278 280 282 285 291 292 293 295 297 299 301 304 307 310 313 315 317 319 321 324 326 328 330 331 333 335 336 338 339 340 341 342 342 342 342 342 342 342 342 341 341 341 341 341 341 341
Height
5887 5887 5888 5890 5890 5890 5889 5890 5889 5888 5888 5888 5887 5887 5887 5887 5887 5888 5884 5882 5880 5879 5878 5876 5875 5873 5871 5869 5868 5866 5864 5862 5860 5858 5856 5854 5852 5850 5848 5846 5844 5843 5841 5840 5838 5837 5836 5835 5834
5889 5889 5891 5891 5891 5891 5891 5890 5890 5889 5889 5888 5887 5886 5886 5885 5884 5883 5881 5880 5878 5877 5875 5873 5872 5870 5868 5866 5864 5862 5860 5858 5855 5853 5851 5849 5846 5844 5842 5839 5837 5835 5833 5831 5830 5828 5827 5826 5825
5891 5891 5893 5893 5892 5892 5892 5891 5890 5889 5889 5887 5886 5885 5884 5884 5882 5881 5879 5877 5876 5874 5872 5871 5869 5867 5864 5862 5860 5858 5855 5853 5850 5848 5845 5843 5840 5837 5834 5831 5829 5826 5824 5821 5819 5817 5816 5814 5813
5893 5894 5894 5894 5893 5893 5892 5891 5890 5889 5888 5887 5886 5884 5883 5882 5880 5879 5877 5875 5873 5871 5869 5867 5865 5863 5861 5858 5856 5853 5851 5848 5845 5842 5839 5836 5833 5829 5826 5823 5819 5816 5813 5810 5807 5804 5802 5800 5799
5895 5896 5896 5895 5894 5894 5892 5891 5890 5889 5887 5886 5884 5883 5881 5880 5878 5876 5874 5872 5870 5868 5866 5864 5862 5859 5857 5854 5851 5848 5845 5842 5839 5836 5832 5828 5824 5821 5817 5813 5809 5805 5801 5797 5793 5789 5786 5783 5781
5897 5897 5896 5896 5895 5893 5892 5891 5889 5888 5886 5884 5882 5880 5879 5878 5875 5873 5871 5869 5867 5865 5863 5860 5858 5855 5852 5849 5846 5843 5840 5836 5832 5828 5824 5820 5816 5811 5807 5802 5797 5792 5787 5782 5777 5772 5768 5764 5761
5898 5897 5896 5896 5894 5893 5892 5890 5888 5886 5884 5882 5880 5878 5876 5875 5873 5871 5869 5867 5865 5862 5859 5857 5854 5851 5848 5845 5841 5837 5834 5829 5825 5821 5816 5811 5806 5801 5796 5790 5784 5778 5772 5766 5760 5754 5748 5742 5737
5898 5898 5896 5895 5893 5892 5890 5888 5886 5884 5883 5880 5878 5876 5874 5873 5870 5868 5866 5864 5861 5859 5856 5853 5850 5846 5843 5839 5835 5831 5827 5822 5817 5812 5807 5802 5796 5790 5784 5778 5771 5765 5758 5750 5743 5735 5727 5719 5712
5898 5898 5895 5893 5891 5890 5888 5886 5884 5882 5880 5878 5876 5874 5873 5871 5868 5866 5863 5861 5858 5855 5852 5849 5845 5841 5838 5833 5829 5824 5819 5814 5809 5803 5797 5791 5785 5779 5772 5766 5759 5751 5743 5735 5726 5716 5707 5697 5686
5897 5896 5894 5892 5890 5887 5885 5884 5882 5880 5878 5876 5874 5872 5870 5868 5866 5863 5861 5858 5854 5851 5848 5844 5840 5836 5832 5827 5822 5817 5812 5806 5800 5794 5788 5782 5775 5768 5761 5754 5746 5738 5729 5719 5708 5697 5685 5673 5660
5895 5894 5892 5890 5887 5885 5883 5881 5879 5877 5875 5874 5872 5871 5868 5866 5864 5861 5858 5854 5851 5847 5843 5839 5835 5830 5825 5820 5815 5809 5804 5798 5791 5785 5778 5772 5765 5757 5750 5742 5733 5724 5714 5702 5690 5676 5662 5647 5633
5893 5891 5889 5887 5884 5882 5880 5878 5876 5874 5873 5871 5870 5868 5866 5863 5861 5858 5854 5850 5846 5842 5838 5833 5829 5824 5819 5813 5808 5802 5795 5789 5783 5776 5769 5762 5754 5746 5738 5729 5720 5709 5697 5684 5669 5654 5638 5622 5607
5891 5888 5886 5884 5882 5880 5878 5876 5874 5873 5871 5868 5866 5864 5862 5860 5857 5854 5850 5846 5841 5837 5833 5828 5823 5818 5812 5806 5800 5794 5787 5781 5774 5767 5759 5752 5744 5735 5726 5716 5705 5693 5679 5664 5647 5630 5614 5598 5583
5888 5886 5884 5881 5879 5878 5876 5874 5872 5871 5869 5866 5864 5862 5859 5856 5853 5849 5845 5841 5837 5832 5827 5822 5817 5812 5806 5800 5793 5786 5779 5772 5765 5757 5750 5741 5733 5724 5714 5702 5690 5675 5660 5643 5625 5608 5591 5576 5562
5886 5884 5882 5879 5877 5875 5874 5872 5871 5869 5867 5864 5862 5859 5856 5853 5849 5845 5841 5837 5832 5827 5822 5817 5812 5806 5800 5793 5786 5779 5772 5764 5756 5748 5739 5731 5721 5711 5700 5687 5673 5658 5641 5623 5604 5586 5570 5555 5543
5884 5881 5879 5877 5875 5873 5873 5870 5868 5866 5864 5861 5859 5856 5853 5849 5845 5841 5837 5832 5828 5823 5818 5812 5806 5800 5793 5786 5779 5771 5764 5755 5747 5738 5729 5719 5709 5698 5686 5672 5657 5640 5622 5603 5585 5567 5552 5537 5524
5881 5879 5876 5875 5873 5871 5870 5868 5865 5863 5861 5858 5856 5852 5849 5845 5841 5837 5833 5828 5823 5818 5813 5807 5800 5794 5787 5779 5772 5764 5755 5746 5737 5728 5718 5707 5696 5684 5671 5656 5640 5622 5603 5584 5566 5549 5534 5520 5506
5879 5876 5874 5873 5871 5869 5867 5865 5863 5860 5858 5855 5852 5849 5845 5842 5838 5833 5829 5824 5819 5813 5807 5801 5794 5787 5780 5772 5764 5755 5746 5737 5727 5717 5706 5695 5683 5670 5656 5640 5622 5604 5585 5566 5549 5533 5517 5502 5488
5876 5874 5872 5871 5868 5866 5864 5862 5860 5857 5855 5852 5849 5846 5842 5838 5834 5829 5824 5819 5814 5808 5802 5795 5788 5781 5773 5765 5756 5747 5737 5727 5717 5706 5694 5682 5670 5656 5641 5624 5606 5587 5569 5550 5533 5517 5503 5487 5471
5873 5871 5869 5867 5865 5863 5861 5859 5857 5854 5852 5849 5846 5842 5839 5834 5830 5825 5820 5814 5809 5803 5796 5789 5782 5774 5766 5757 5748 5738 5728 5717 5706 5694 5682 5670 5656 5642 5626 5609 5591 5572 5553 5536 5518 5502 5488 5473 5455
5870 5868 5866 5864 5862 5860 5859 5857 5854 5851 5848 5845 5842 5839 5835 5830 5825 5820 5815 5810 5804 5797 5791 5784 5776 5767 5759 5749 5740 5730 5719 5708 5696 5683 5670 5657 5643 5627 5611 5594 5576 5557 5539 5522 5505 5489 5474 5460 5444
5866 5864 5862 5860 5859 5857 5855 5853 5851 5848 5844 5841 5838 5835 5830 5826 5821 5815 5810 5804 5798 5792 5785 5777 5769 5760 5751 5741 5731 5721 5710 5698 5685 5672 5659 5645 5630 5614 5598 5580 5562 5544 5526 5509 5493 5477 5461 5446 5432
5862 5860 5859 5857 5854 5853 5851 5848 5847 5844 5840 5837 5834 5830 5825 5821 5816 5810 5805 5799 5793 5786 5778 5770 5762 5753 5743 5734 5723 5712 5700 5688 5675 5662 5648 5633 5618 5602 5585 5567 5549 5532 5515 5498 5482 5466 5450 5434 5420
5858 5856 5855 5852 5850 5850 5847 5844 5843 5840 5836 5833 5829 5825 5820 5815 5810 5805 5799 5793 5786 5779 5771 5763 5755 5745 5736 5726 5715 5703 5692 5679 5666 5652 5637 5622 5606 5590 5573 5556 5538 5521 5504 5488 5472 5457 5441 5425 5411
5854 5852 5850 5848 5846 5845 5842 5839 5839 5835 5831 5828 5824 5819 5814 5809 5804 5798 5792 5786 5779 5772 5764 5756 5747 5738 5728 5718 5707 5695 5683 5670 5656 5642 5627 5612 5596 5579 5562 5545 5528 5511 5495 5479 5464 5448 5433 5418 5404
5849 5848 5846 5844 5841 5839 5836 5834 5834 5830 5826 5822 5818 5813 5808 5803 5798 5792 5786 5779 5772 5765 5757 5749 5740 5730 5720 5710 5698 5687 5674 5661 5647 5633 5618 5603 5587 5570 5553 5536 5519 5502 5486 5471 5456 5441 5425 5411 5397
5844 5842 5840 5838 5835 5833 5831 5829 5828 5824 5820 5816 5812 5807 5802 5797 5791 5785 5779 5772 5765 5757 5749 5741 5732 5722 5712 5701 5690 5678 5666 5652 5639 5624 5609 5593 5577 5561 5544 5528 5511 5494 5479 5463 5448 5434 5419 5405 5391
5839 5837 5835 5832 5828 5826 5825 5823 5822 5818 5814 5810 5806 5800 5795 5790 5784 5778 5771 5765 5757 5750 5742 5733 5724 5714 5704 5693 5682 5670 5657 5644 5630 5615 5600 5584 5569 5553 5536 5520 5503 5487 5471 5456 5442 5427 5413 5399 5386
5834 5832 5828 5825 5823 5819 5817 5820 5816 5811 5807 5803 5798 5793 5787 5782 5776 5770 5764 5757 5749 5742 5733 5725 5715 5706 5696 5685 5674 5662 5649 5636 5621 5607 5592 5576 5560 5544 5528 5512 5496 5480 5465 5450 5436 5422 5408 5394 5381
5827 5825 5822 5820 5817 5812 5808 5813 5809 5804 5799 5794 5790 5785 5780 5774 5769 5762 5756 5749 5741 5733 5725 5716 5707 5697 5687 5677 5665 5653 5641 5627 5613 5599 5584 5568 5553 5537 5521 5505 5489 5474 5459 5444 5430 5416 5403 5389 5377